GW3869 Weather Reports


time (UTC)temp
F
wind
direction
speed
knots
gust
knots
rain 1hr
in
rain 24hr
in
rain mn
in
humidity
%
barometer
mb
20260503201333 63 186 7.0 10.4 0.00 0.00 0.00 35 1014.1
20260503200831 62 186 7.8 10.4 0.00 0.00 0.00 32 1014.1
20260503200326 63 161 5.2 8.7 0.00 0.00 0.00 33 1014.0
20260503195824 62 176 5.2 8.7 0.00 0.00 0.00 32 1014.2
20260503195320 62 192 7.0 9.6 0.00 0.00 0.00 33 1014.0
20260503194818 63 159 6.1 9.6 0.00 0.00 0.00 33 1014.3
20260503194314 63 184 7.0 8.7 0.00 0.00 0.00 33 1014.4
20260503193810 63 171 6.1 7.8 0.00 0.00 0.00 34 1014.6
20260503193306 64 191 6.1 7.0 0.00 0.00 0.00 34 1014.8
20260503192802 62 192 5.2 13.0 0.00 0.00 0.00 33 1014.8
20260503192257 62 194 7.8 9.6 0.00 0.00 0.00 33 1015.1
20260503191754 63 184 5.2 9.6 0.00 0.00 0.00 31 1015.0
20260503191251 63 188 4.3 7.0 0.00 0.00 0.00 36 1015.3
20260503190748 63 197 4.3 10.4 0.00 0.00 0.00 33 1015.5
20260503190245 62 196 7.0 10.4 0.00 0.00 0.00 32 1015.3
20260503185742 62 178 6.1 8.7 0.00 0.00 0.00 32 1015.3
20260503185238 63 187 7.8 9.6 0.00 0.00 0.00 32 1015.4
20260503184732 63 171 6.1 8.7 0.00 0.00 0.00 36 1015.4
20260503184224 63 179 9.6 9.6 0.00 0.00 0.00 34 1015.5
20260503183720 62 176 6.1 7.8 0.00 0.00 0.00 35 1015.6
20260503183217 63 153 9.6 9.6 0.00 0.00 0.00 32 1015.7
20260503182716 62 185 5.2 6.1 0.00 0.00 0.00 33 1015.6
20260503182214 64 182 6.1 7.0 0.00 0.00 0.00 34 1015.9
20260503181710 63 189 4.3 7.8 0.00 0.00 0.00 36 1015.8
20260503181207 64 184 4.3 6.1 0.00 0.00 0.00 36 1015.9
20260503180704 63 187 5.2 6.1 0.00 0.00 0.00 38 1015.9
20260503180203 64 187 7.8 10.4 0.00 0.00 0.00 31 1016.0
20260503175659 63 152 7.0 7.8 0.00 0.00 0.00 36 1016.1
20260503175156 62 174 5.2 9.6 0.00 0.00 0.00 34 1016.0
20260503174652 61 189 6.1 10.4 0.00 0.00 0.00 34 1016.2
20260503174150 61 140 6.1 11.3 0.00 0.00 0.00 33 1016.2
20260503173645 61 196 7.8 9.6 0.00 0.00 0.00 31 1016.5
20260503173141 62 192 7.0 7.8 0.00 0.00 0.00 34 1016.5
20260503172638 62 170 5.2 7.0 0.00 0.00 0.00 42 1016.4
20260503172136 61 189 5.2 7.0 0.00 0.00 0.00 34 1016.6
20260503171632 61 195 3.5 7.0 0.00 0.00 0.00 35 1016.8
20260503171130 60 168 4.3 5.2 0.00 0.00 0.00 38 1016.7
20260503170626 60 182 5.2 7.0 0.00 0.00 0.00 36 1016.9
20260503170123 61 153 10.4 10.4 0.00 0.00 0.00 35 1017.0
20260503150515 55 179 5.2 7.8 0.00 0.00 0.00 46 1018.5
20260503131407 44 146 5.2 7.0 0.00 0.00 0.00 70 1018.5
20260503130904 44 141 5.2 6.1 0.00 0.00 0.00 69 1018.6
20260503130402 44 152 5.2 6.1 0.00 0.00 0.00 71 1018.3
20260503110806 33 138 5.2 7.0 0.00 0.00 0.00 95 1018.0
20260503110303 33 138 5.2 7.0 0.00 0.00 0.00 95 1017.3
20260503100229 33 139 6.1 6.1 0.00 0.00 0.00 95 1017.1
20260503090153 33 132 6.1 6.1 0.00 0.00 0.00 94 1016.9
20260503081624 33 128 5.2 5.2 0.00 0.00 0.00 92 1016.9
20260503081121 34 128 5.2 5.2 0.00 0.00 0.00 92 1016.8
20260503080617 34 128 4.3 5.2 0.00 0.00 0.00 92 1017.0
20260503080114 34 132 5.2 6.1 0.00 0.00 0.00 92 1016.9
20260503072551 34 128 4.3 5.2 0.00 0.00 0.00 91 1016.7
20260503072048 34 125 5.2 5.2 0.00 0.00 0.00 90 1016.8
20260503071545 34 127 5.2 5.2 0.00 0.00 0.00 90 1016.7
20260503071042 34 128 4.3 5.2 0.00 0.00 0.00 90 1016.9
20260503070538 34 131 5.2 5.2 0.00 0.00 0.00 90 1016.7
20260503054957 36 130 4.3 5.2 0.00 0.00 0.00 86 1017.2
20260503054452 36 129 4.3 5.2 0.00 0.00 0.00 85 1017.3
20260503053950 36 126 4.3 5.2 0.00 0.00 0.00 85 1016.9
20260503053448 36 126 4.3 5.2 0.00 0.00 0.00 85 1017.1
20260503052944 36 128 4.3 5.2 0.00 0.00 0.00 84 1017.1
20260503052442 36 128 4.3 4.3 0.00 0.00 0.00 84 1017.4
20260503051938 37 125 5.2 5.2 0.00 0.00 0.00 84 1017.3
20260503051434 37 131 4.3 5.2 0.00 0.00 0.00 83 1017.3
20260503050931 37 127 4.3 5.2 0.00 0.00 0.00 83 1017.2
20260503050427 37 129 4.3 5.2 0.00 0.00 0.00 83 1017.1
20260503045925 37 121 5.2 5.2 0.00 0.00 0.00 82 1017.1
20260503045422 37 123 4.3 5.2 0.00 0.00 0.00 81 1017.2
20260503044919 37 134 4.3 5.2 0.00 0.00 0.00 80 1017.2
20260503044416 38 135 5.2 5.2 0.00 0.00 0.00 79 1017.0
20260503043914 38 130 5.2 6.1 0.00 0.00 0.00 77 1017.2
20260503043410 38 134 5.2 5.2 0.00 0.00 0.00 75 1017.1
20260503042906 39 129 4.3 5.2 0.00 0.00 0.00 74 1017.4
20260503042403 39 140 5.2 6.1 0.00 0.00 0.00 74 1017.3
20260503041859 39 139 4.3 5.2 0.00 0.00 0.00 72 1017.3
20260503041356 39 134 6.1 6.1 0.00 0.00 0.00 71 1017.1
20260503040854 39 129 4.3 5.2 0.00 0.00 0.00 71 1017.3
20260503040351 39 137 5.2 5.2 0.00 0.00 0.00 72 1017.2
20260503035848 39 134 4.3 5.2 0.00 0.00 0.00 72 1017.3
20260503035345 39 133 5.2 6.1 0.00 0.00 0.00 72 1017.5
20260503034842 39 135 4.3 5.2 0.00 0.00 0.00 72 1017.2
20260503034340 40 135 4.3 5.2 0.00 0.00 0.00 71 1017.5
20260503033837 40 139 4.3 5.2 0.00 0.00 0.00 70 1017.5
20260503033334 40 132 5.2 5.2 0.00 0.00 0.00 68 1017.6
20260503032832 40 133 5.2 5.2 0.00 0.00 0.00 66 1017.4
20260503032331 40 130 4.3 5.2 0.00 0.00 0.00 65 1017.4
20260503031828 41 125 4.3 5.2 0.00 0.00 0.00 64 1017.4
20260503031326 41 125 4.3 5.2 0.00 0.00 0.00 63 1017.2
20260503030822 41 130 4.3 5.2 0.00 0.00 0.00 63 1017.4
20260503030318 41 131 4.3 5.2 0.00 0.00 0.00 63 1017.3
20260503025815 42 122 4.3 5.2 0.00 0.00 0.00 62 1017.4
20260503025313 42 112 5.2 6.1 0.00 0.00 0.00 63 1017.3
20260503024809 41 133 4.3 7.0 0.00 0.00 0.00 63 1017.1
20260503024306 42 94 3.5 5.2 0.00 0.00 0.00 62 1017.0
20260503023803 42 109 4.3 5.2 0.00 0.00 0.00 63 1017.1
20260503023300 42 119 4.3 6.1 0.00 0.00 0.00 62 1017.2
20260503022757 42 134 4.3 5.2 0.00 0.00 0.00 62 1016.8
20260503022256 42 129 5.2 6.1 0.00 0.00 0.00 61 1016.9
20260503021753 43 135 4.3 4.3 0.00 0.00 0.00 61 1017.0
20260503021249 43 126 4.3 6.1 0.00 0.00 0.00 60 1017.1
20260503020747 43 118 5.2 6.1 0.00 0.00 0.00 59 1016.7
20260503020245 44 127 5.2 6.1 0.00 0.00 0.00 58 1016.7
20260503015741 44 121 5.2 5.2 0.00 0.00 0.00 59 1016.8
20260503015238 44 116 4.3 4.3 0.00 0.00 0.00 57 1016.8
20260503014733 44 114 4.3 5.2 0.00 0.00 0.00 56 1016.8
20260503014232 45 124 4.3 4.3 0.00 0.00 0.00 57 1016.6
20260503013729 45 102 5.2 5.2 0.00 0.00 0.00 56 1016.3
20260503013226 45 121 4.3 6.1 0.00 0.00 0.00 56 1016.3
20260503012724 45 117 2.6 5.2 0.00 0.00 0.00 55 1016.1
20260503012220 45 118 4.3 4.3 0.00 0.00 0.00 56 1016.4
20260503011717 45 105 3.5 4.3 0.00 0.00 0.00 54 1016.3
20260503011214 46 117 3.5 6.1 0.00 0.00 0.00 54 1016.2
20260503010710 46 112 3.5 5.2 0.00 0.00 0.00 55 1016.3
20260503010207 46 110 4.3 4.3 0.00 0.00 0.00 54 1016.2
20260503005705 46 126 6.1 6.1 0.00 0.00 0.00 54 1015.9
20260503005202 46 118 3.5 4.3 0.00 0.00 0.00 54 1015.9
20260503004658 46 125 4.3 5.2 0.00 0.00 0.00 52 1015.8
20260503004156 47 94 2.6 4.3 0.00 0.00 0.00 51 1015.9
20260503003653 47 123 3.5 5.2 0.00 0.00 0.00 51 1015.9
20260503003150 47 112 3.5 4.3 0.00 0.00 0.00 50 1016.0
20260503002647 48 100 2.6 4.3 0.00 0.00 0.00 49 1015.5
20260503002144 48 102 3.5 4.3 0.00 0.00 0.00 47 1015.6
20260503001639 49 100 3.5 3.5 0.00 0.00 0.00 48 1015.6
20260503001137 49 117 3.5 5.2 0.00 0.00 0.00 47 1015.5
20260503000634 50 123 2.6 5.2 0.00 0.00 0.00 48 1015.6
20260503000132 50 122 3.5 3.5 0.00 0.00 0.00 49 1015.8
20260502235628 50 122 4.3 7.0 0.00 0.00 0.00 44 1015.5
20260502235126 51 121 5.2 6.1 0.00 0.00 0.00 44 1015.4
20260502234621 51 59 4.3 7.8 0.00 0.00 0.00 45 1015.4
20260502234120 51 132 4.3 5.2 0.00 0.00 0.00 44 1015.3
20260502233615 51 95 3.5 6.1 0.00 0.00 0.00 40 1015.4
20260502233112 51 126 2.6 5.2 0.00 0.00 0.00 42 1015.3
20260502232608 51 132 4.3 7.8 0.00 0.00 0.00 43 1015.3
20260502232106 52 88 2.6 5.2 0.00 0.00 0.00 42 1015.4
20260502231602 52 131 2.6 10.4 0.00 0.00 0.00 43 1015.3
20260502231100 52 97 1.7 5.2 0.00 0.00 0.00 39 1015.1
20260502230558 52 100 4.3 7.0 0.00 0.00 0.00 44 1015.2
20260502230056 52 129 3.5 6.1 0.00 0.00 0.00 40 1015.3
20260502225551 52 95 3.5 5.2 0.00 0.00 0.00 44 1015.1
20260502225049 53 158 3.5 5.2 0.00 0.00 0.00 38 1015.1
20260502224545 53 80 3.5 5.2 0.00 0.00 0.00 38 1015.0
20260502224042 53 100 2.6 7.0 0.00 0.00 0.00 38 1015.1
20260502223540 53 106 3.5 5.2 0.00 0.00 0.00 42 1015.1
20260502223038 55 119 2.6 7.0 0.00 0.00 0.00 37 1015.3
20260502222535 54 148 4.3 4.3 0.00 0.00 0.00 41 1015.0
20260502222031 54 80 2.6 7.8 0.00 0.00 0.00 42 1015.2
20260502221527 53 92 2.6 5.2 0.00 0.00 0.00 41 1015.3
20260502221025 54 70 2.6 4.3 0.00 0.00 0.00 37 1015.0
20260502220520 54 78 2.6 4.3 0.00 0.00 0.00 37 1014.9
20260502220017 54 154 2.6 5.2 0.00 0.00 0.00 43 1015.0
20260502215514 54 143 1.7 4.3 0.00 0.00 0.00 39 1015.0
20260502215011 55 85 5.2 7.8 0.00 0.00 0.00 35 1014.7
20260502214508 56 80 2.6 4.3 0.00 0.00 0.00 37 1014.9
20260502214006 56 106 4.3 7.0 0.00 0.00 0.00 37 1014.7
20260502213502 57 52 2.6 7.0 0.00 0.00 0.00 39 1015.1
20260502213000 55 99 2.6 7.0 0.00 0.00 0.00 36 1014.8
20260502212458 53 75 4.3 6.1 0.00 0.00 0.00 40 1015.1
20260502211955 53 170 2.6 4.3 0.00 0.00 0.00 45 1014.8
20260502211451 53 157 3.5 5.2 0.00 0.00 0.00 39 1015.0
20260502210949 54 158 2.6 3.5 0.00 0.00 0.00 43 1014.9
20260502210445 54 136 2.6 4.3 0.00 0.00 0.00 40 1014.8
20260502205943 53 126 4.3 4.3 0.00 0.00 0.00 40 1014.7
20260502205439 53 98 5.2 7.0 0.00 0.00 0.00 40 1015.1
20260502204936 54 100 3.5 7.8 0.00 0.00 0.00 38 1015.1
20260502204433 53 143 3.5 5.2 0.00 0.00 0.00 40 1014.9
20260502203931 53 115 2.6 6.1 0.00 0.00 0.00 43 1015.0
20260502203428 54 53 2.6 7.0 0.00 0.00 0.00 38 1014.7
20260502202924 55 91 3.5 7.0 0.00 0.00 0.00 41 1014.8
20260502202421 56 122 2.6 5.2 0.00 0.00 0.00 41 1014.9
20260502201919 55 82 1.7 6.1 0.00 0.00 0.00 41 1015.1